Elefsis, Greece

11:17 PM EEST on September 26, 2017 (GMT +0300)
Elefsis Air Base

Weather History for LGEL - January, 2013

Change the Weather History Date:

Saturday, January 5, 2013

  Actual Average Record
Temperature  
Mean Temperature 50 °F -  
Max Temperature 57 °F 54 °F 69 °F (2016)
Min Temperature 41 °F 40 °F 28 °F (2002)
Degree Days  
Heating Degree Days 16    
Moisture  
Dew Point 35 °F    
Average Humidity 56    
Maximum Humidity 81    
Minimum Humidity 33    
Precipitation  
Precipitation 0.00 in - - ()
Sea Level Pressure  
Sea Level Pressure 29.92 in    
Wind  
Wind Speed 3 mph ()    
Max Wind Speed 9 mph    
Max Gust Speed -    
Visibility 6.2 miles    
Events      
Averages and records for this station are not official NWS values.
T = Trace of Precipitation, MM = Missing Value Source: Averaged Metar Reports

Daily Weather History Graph

Daily Weather History Graph

Search for Another Location

Airport or City:

Trip Planner

Search our weather history database for the weather conditions in past years. The results will help you decide how hot, cold, wet, or windy it might be!

Date:

Astronomy

Jan. 05, 2013 Rise Set
Actual Time 7:42 AM EET 5:20 PM EET
Civil Twilight 7:13 AM EET 5:49 PM EET
Nautical Twilight 6:40 AM EET 6:22 PM EET
Astronomical Twilight 6:08 AM EET 6:54 PM EET
Moon 12:31 AM EET (1/5) 11:56 AM EET (1/5)
Length of Visible Light 10h 36m
Length of Day
9h 37m
Waning Gibbous, 47% of the Moon is Illuminated
Jan 5
Waning Gibbous
Jan 11
New
Jan 19
First Quarter
Jan 27
Full
Feb 3
Last Quarter

Hourly Weather History & Observations

Time (EET) Temp. Windchill Dew Point Humidity Pressure Visibility Wind Dir Wind Speed Gust Speed Precip Events Conditions
12:50 AM 42.8 °F - 35.6 °F 76% 30.06 in - Calm Calm - N/A   Clear
1:50 AM 44.6 °F - 35.6 °F 71% 30.04 in - Calm Calm - N/A   Clear
2:50 AM 42.8 °F - 35.6 °F 76% 30.04 in - Calm Calm - N/A   Clear
4:50 AM 46.4 °F - 35.6 °F 66% 30.01 in - Calm Calm - N/A   Clear
6:50 AM 46.4 °F - 35.6 °F 66% 30.01 in - Calm Calm - N/A   Clear
7:20 AM 48.2 °F - 33.8 °F 58% 30.01 in - Calm Calm - N/A   Clear
7:50 AM 48.2 °F - 33.8 °F 58% 30.01 in 6.2 mi Variable 3.5 mph - N/A   Mostly Cloudy
8:20 AM 46.4 °F 45.2 °F 33.8 °F 62% 30.01 in 6.2 mi Variable 3.5 mph - N/A   Mostly Cloudy
8:50 AM 48.2 °F - 33.8 °F 58% 30.01 in 6.2 mi Variable 3.5 mph - N/A   Scattered Clouds
9:20 AM 50.0 °F - 35.6 °F 58% 30.01 in 6.2 mi NNW 6.9 mph - N/A   Scattered Clouds
9:50 AM 53.6 °F - 35.6 °F 51% 29.98 in 6.2 mi NNW 8.1 mph - N/A   Scattered Clouds
10:20 AM 55.4 °F - 35.6 °F 47% 29.98 in 6.2 mi NNW 8.1 mph - N/A   Scattered Clouds
10:50 AM 55.4 °F - 35.6 °F 47% 29.98 in 6.2 mi NNW 9.2 mph - N/A   Scattered Clouds
11:20 AM 57.2 °F - 32.0 °F 38% 29.98 in 6.2 mi NW 9.2 mph - N/A   Mostly Cloudy
11:50 AM 57.2 °F - 30.2 °F 36% 29.95 in 6.2 mi NW 9.2 mph - N/A   Mostly Cloudy
12:20 PM 57.2 °F - 30.2 °F 36% 29.95 in 6.2 mi NW 8.1 mph - N/A   Mostly Cloudy
12:50 PM 57.2 °F - 30.2 °F 36% 29.92 in 6.2 mi WNW 5.8 mph - N/A   Mostly Cloudy
1:20 PM 57.2 °F - 32.0 °F 38% 29.89 in 6.2 mi NNW 5.8 mph - N/A   Mostly Cloudy
1:50 PM 57.2 °F - 28.4 °F 33% 29.89 in 6.2 mi NNW 5.8 mph - N/A   Mostly Cloudy
2:20 PM 57.2 °F - 30.2 °F 36% 29.89 in 6.2 mi NNW 5.8 mph - N/A   Mostly Cloudy
2:50 PM 55.4 °F - 32.0 °F 41% 29.89 in 6.2 mi North 4.6 mph - N/A   Mostly Cloudy
3:20 PM 55.4 °F - 32.0 °F 41% 29.89 in 6.2 mi NNW 4.6 mph - N/A   Mostly Cloudy
3:50 PM 55.4 °F - 33.8 °F 44% 29.86 in 6.2 mi Calm Calm - N/A   Mostly Cloudy
4:20 PM 53.6 °F - 35.6 °F 51% 29.86 in 6.2 mi Calm Calm - N/A   Mostly Cloudy
4:50 PM 55.4 °F - 32.0 °F 41% 29.86 in 6.2 mi Calm Calm - N/A   Mostly Cloudy
5:20 PM 53.6 °F - 33.8 °F 47% 29.86 in 6.2 mi Calm Calm - N/A   Mostly Cloudy
5:50 PM 50.0 °F - 37.4 °F 62% 29.86 in 6.2 mi Calm Calm - N/A   Mostly Cloudy
6:20 PM 50.0 °F - 39.2 °F 66% 29.86 in 6.2 mi Calm Calm - N/A   Mostly Cloudy
6:50 PM 50.0 °F - 39.2 °F 66% 29.86 in 6.2 mi Calm Calm - N/A   Mostly Cloudy
7:20 PM 48.2 °F - 41.0 °F 76% 29.83 in 6.2 mi Calm Calm - N/A   Mostly Cloudy
7:50 PM 50.0 °F - 39.2 °F 66% 29.83 in 6.2 mi Calm Calm - N/A   Scattered Clouds
8:20 PM 50.0 °F - 39.2 °F 66% 29.83 in 6.2 mi Calm Calm - N/A   Scattered Clouds
8:50 PM 46.4 °F 45.2 °F 37.4 °F 71% 29.83 in 6.2 mi Variable 3.5 mph - N/A   Scattered Clouds
9:50 PM 44.6 °F 40.7 °F 35.6 °F 71% 29.80 in 6.2 mi North 6.9 mph - N/A   Scattered Clouds
10:20 PM 44.6 °F - 35.6 °F 71% 29.83 in - Calm Calm - N/A   Clear
10:50 PM 42.8 °F 40.1 °F 35.6 °F 76% 29.80 in - North 4.6 mph - N/A   Clear
11:50 PM 41.0 °F 38.0 °F 35.6 °F 81% 29.80 in - NNW 4.6 mph - N/A   Clear